Wetterdaten: Mittwoch, 10.09.2014
Datum Zeit Temperatur Luftfeuchte Luftdruck Regen Wind Richtung Richtung Taupunkt Windchill Windben
10.09.2014 00:00 13,7 C 94 % 1020,1 hPa 0,0 l/m 0,0 km/h (0 Bft) S 180 12,8 C 13,4 C 0,0 km/h (0 Bft)
10.09.2014 00:10 13,7 C 94 % 1020,1 hPa 0,0 l/m 0,2 km/h (0 Bft) S-SO 157 12,8 C 13,4 C 0,0 km/h (0 Bft)
10.09.2014 00:20 13,7 C 94 % 1019,3 hPa 0,0 l/m 0,0 km/h (0 Bft) SO 135 12,8 C 13,4 C 0,0 km/h (0 Bft)
10.09.2014 00:30 13,5 C 94 % 1019,3 hPa 0,0 l/m 0,2 km/h (0 Bft) O-SO 112 12,6 C 13,4 C 0,0 km/h (0 Bft)
10.09.2014 00:40 13,5 C 94 % 1018,9 hPa 0,0 l/m 0,2 km/h (0 Bft) S-SO 157 12,6 C 13,3 C 2,1 km/h (1 Bft)
10.09.2014 00:50 13,5 C 94 % 1018,9 hPa 0,0 l/m 0,0 km/h (0 Bft) S 180 12,6 C 13,3 C 0,0 km/h (0 Bft)
10.09.2014 01:00 13,0 C 94 % 1018,4 hPa 0,0 l/m 0,0 km/h (0 Bft) SO 135 12,1 C 12,9 C 0,0 km/h (0 Bft)
10.09.2014 01:08 12,6 C 95 % 1018,4 hPa 0,0 l/m 0,2 km/h (0 Bft) S 180 11,8 C 12,4 C 0,0 km/h (0 Bft)
10.09.2014 01:10 12,6 C 95 % 1018,4 hPa 0,0 l/m 0,2 km/h (0 Bft) S 180 11,8 C 12,4 C 0,0 km/h (0 Bft)
10.09.2014 01:20 12,6 C 95 % 1018,3 hPa 0,0 l/m 0,3 km/h (0 Bft) W-SW 247 11,8 C 12,4 C 2,7 km/h (1 Bft)
10.09.2014 01:30 12,9 C 95 % 1018,3 hPa 0,0 l/m 1,1 km/h (1 Bft) N-NO 22 12,1 C 12,7 C 3,1 km/h (1 Bft)
10.09.2014 01:40 12,8 C 95 % 1018,2 hPa 0,0 l/m 0,0 km/h (0 Bft) O-SO 112 12,0 C 12,7 C 0,0 km/h (0 Bft)
10.09.2014 01:50 12,9 C 95 % 1018,2 hPa 0,0 l/m 0,2 km/h (0 Bft) SO 135 12,1 C 12,7 C 0,0 km/h (0 Bft)
10.09.2014 02:00 12,9 C 95 % 1018,3 hPa 0,0 l/m 0,0 km/h (0 Bft) SW 225 12,1 C 12,8 C 0,0 km/h (0 Bft)
10.09.2014 02:10 12,9 C 95 % 1018,3 hPa 0,0 l/m 0,0 km/h (0 Bft) O-SO 112 12,1 C 12,8 C 0,0 km/h (0 Bft)
10.09.2014 02:20 12,9 C 95 % 1018,3 hPa 0,0 l/m 0,0 km/h (0 Bft) SO 135 12,1 C 12,8 C 0,0 km/h (0 Bft)
10.09.2014 02:30 13,0 C 94 % 1018,3 hPa 0,0 l/m 0,0 km/h (0 Bft) NW 315 12,1 C 12,8 C 0,0 km/h (0 Bft)
10.09.2014 02:40 13,0 C 94 % 1018,5 hPa 0,0 l/m 0,0 km/h (0 Bft) NW 315 12,1 C 12,9 C 0,0 km/h (0 Bft)
10.09.2014 02:50 13,1 C 95 % 1018,5 hPa 0,0 l/m 0,0 km/h (0 Bft) N-NO 22 12,3 C 13,0 C 0,0 km/h (0 Bft)
10.09.2014 03:00 13,2 C 95 % 1019,1 hPa 0,0 l/m 0,0 km/h (0 Bft) O-NO 67 12,4 C 13,0 C 0,0 km/h (0 Bft)
10.09.2014 03:10 13,4 C 95 % 1019,1 hPa 0,0 l/m 0,0 km/h (0 Bft) SO 135 12,6 C 13,2 C 0,0 km/h (0 Bft)
10.09.2014 03:20 13,4 C 95 % 1019,0 hPa 0,0 l/m 0,0 km/h (0 Bft) W 270 12,6 C 13,3 C 0,0 km/h (0 Bft)
10.09.2014 03:30 13,5 C 95 % 1019,0 hPa 0,0 l/m 0,0 km/h (0 Bft) NW 315 12,7 C 13,3 C 0,0 km/h (0 Bft)
10.09.2014 03:40 13,4 C 95 % 1019,1 hPa 0,0 l/m 0,0 km/h (0 Bft) SO 135 12,6 C 13,3 C 0,0 km/h (0 Bft)
10.09.2014 03:50 13,5 C 95 % 1019,1 hPa 0,0 l/m 0,0 km/h (0 Bft) SO 135 12,7 C 13,3 C 0,0 km/h (0 Bft)
10.09.2014 04:00 13,2 C 95 % 1018,8 hPa 0,0 l/m 0,0 km/h (0 Bft) S-SO 157 12,4 C 13,1 C 0,0 km/h (0 Bft)
10.09.2014 04:09 13,0 C 95 % 1018,8 hPa 0,0 l/m 0,2 km/h (0 Bft) W 270 12,2 C 12,9 C 0,0 km/h (0 Bft)
10.09.2014 04:20 13,1 C 95 % 1018,6 hPa 0,0 l/m 0,2 km/h (0 Bft) O 90 12,3 C 13,0 C 0,0 km/h (0 Bft)
10.09.2014 04:30 13,3 C 95 % 1018,6 hPa 0,0 l/m 0,0 km/h (0 Bft) SO 135 12,5 C 13,2 C 0,0 km/h (0 Bft)
10.09.2014 04:40 13,3 C 95 % 1018,6 hPa 0,0 l/m 0,2 km/h (0 Bft) W-NW 292 12,5 C 13,3 C 2,6 km/h (1 Bft)
10.09.2014 04:50 13,3 C 95 % 1018,6 hPa 0,0 l/m 1,0 km/h (0 Bft) SO 135 12,5 C 13,1 C 0,0 km/h (0 Bft)
10.09.2014 05:00 13,4 C 95 % 1018,4 hPa 0,0 l/m 0,0 km/h (0 Bft) O 90 12,6 C 13,2 C 0,0 km/h (0 Bft)
10.09.2014 05:10 13,5 C 95 % 1018,4 hPa 0,0 l/m 1,0 km/h (0 Bft) NW 315 12,7 C 13,3 C 3,1 km/h (1 Bft)
10.09.2014 05:20 13,5 C 95 % 1018,4 hPa 0,0 l/m 0,6 km/h (0 Bft) O-NO 67 12,7 C 13,3 C 0,0 km/h (0 Bft)
10.09.2014 05:30 13,5 C 95 % 1018,4 hPa 0,0 l/m 0,6 km/h (0 Bft) NW 315 12,7 C 13,4 C 1,9 km/h (1 Bft)
10.09.2014 05:40 13,5 C 95 % 1017,9 hPa 0,0 l/m 0,2 km/h (0 Bft) O-NO 67 12,7 C 13,4 C 0,0 km/h (0 Bft)
10.09.2014 05:50 13,5 C 95 % 1017,9 hPa 0,0 l/m 0,0 km/h (0 Bft) W-NW 292 12,7 C 13,4 C 0,0 km/h (0 Bft)
10.09.2014 06:00 13,4 C 95 % 1018,4 hPa 0,0 l/m 0,3 km/h (0 Bft) W 270 12,6 C 13,3 C 0,0 km/h (0 Bft)
10.09.2014 06:10 13,4 C 95 % 1018,4 hPa 0,0 l/m 0,0 km/h (0 Bft) N-NW 337 12,6 C 13,3 C 0,0 km/h (0 Bft)
10.09.2014 06:20 13,4 C 95 % 1018,1 hPa 0,0 l/m 0,0 km/h (0 Bft) NW 315 12,6 C 13,3 C 0,0 km/h (0 Bft)
10.09.2014 06:30 13,5 C 95 % 1018,1 hPa 0,0 l/m 0,2 km/h (0 Bft) N-NO 22 12,7 C 13,3 C 0,0 km/h (0 Bft)
10.09.2014 06:40 13,4 C 95 % 1018,1 hPa 0,0 l/m 1,1 km/h (1 Bft) NW 315 12,6 C 13,3 C 3,5 km/h (1 Bft)
10.09.2014 06:50 13,4 C 95 % 1018,1 hPa 0,0 l/m 1,8 km/h (1 Bft) SO 135 12,6 C 13,3 C 3,9 km/h (1 Bft)
10.09.2014 07:00 13,4 C 95 % 1017,9 hPa 0,0 l/m 0,8 km/h (0 Bft) O-NO 67 12,6 C 13,2 C 0,0 km/h (0 Bft)
10.09.2014 07:10 13,4 C 95 % 1017,9 hPa 0,0 l/m 0,5 km/h (0 Bft) O-NO 67 12,6 C 13,3 C 0,0 km/h (0 Bft)
10.09.2014 07:20 13,3 C 95 % 1018,0 hPa 0,0 l/m 1,6 km/h (1 Bft) O 90 12,5 C 13,2 C 5,0 km/h (1 Bft)
10.09.2014 07:30 13,3 C 95 % 1018,0 hPa 0,0 l/m 0,6 km/h (0 Bft) O-NO 67 12,5 C 13,2 C 2,7 km/h (1 Bft)
10.09.2014 07:40 13,3 C 95 % 1017,9 hPa 0,0 l/m 1,8 km/h (1 Bft) O 90 12,5 C 13,3 C 0,0 km/h (0 Bft)
10.09.2014 07:50 13,5 C 95 % 1017,9 hPa 0,0 l/m 0,8 km/h (0 Bft) O-NO 67 12,7 C 13,3 C 2,6 km/h (1 Bft)
10.09.2014 08:00 13,4 C 95 % 1018,1 hPa 0,0 l/m 1,6 km/h (1 Bft) O-NO 67 12,6 C 13,3 C 3,4 km/h (1 Bft)
10.09.2014 08:08 13,4 C 95 % 1018,1 hPa 0,0 l/m 1,0 km/h (0 Bft) SO 135 12,6 C 13,4 C 0,0 km/h (0 Bft)
10.09.2014 08:10 13,4 C 95 % 1018,1 hPa 0,0 l/m 1,0 km/h (0 Bft) SO 135 12,6 C 13,4 C 0,0 km/h (0 Bft)
10.09.2014 08:20 13,4 C 95 % 1018,1 hPa 0,0 l/m 0,8 km/h (0 Bft) O-NO 67 12,6 C 13,4 C 2,6 km/h (1 Bft)
10.09.2014 08:30 13,5 C 95 % 1018,1 hPa 0,0 l/m 1,9 km/h (1 Bft) N 360 12,7 C 13,3 C 1,8 km/h (1 Bft)
10.09.2014 08:40 13,4 C 95 % 1018,1 hPa 0,0 l/m 1,1 km/h (1 Bft) O-SO 112 12,6 C 13,3 C 0,0 km/h (0 Bft)
10.09.2014 08:50 13,5 C 95 % 1018,1 hPa 0,0 l/m 1,0 km/h (0 Bft) N-NO 22 12,7 C 13,3 C 0,0 km/h (0 Bft)
10.09.2014 09:00 13,5 C 95 % 1018,1 hPa 0,0 l/m 1,0 km/h (0 Bft) N-NO 22 12,7 C 13,3 C 0,0 km/h (0 Bft)
10.09.2014 09:10 13,4 C 95 % 1018,1 hPa 0,0 l/m 0,0 km/h (0 Bft) N-NO 22 12,6 C 13,3 C 0,0 km/h (0 Bft)
10.09.2014 09:20 13,4 C 95 % 1018,2 hPa 0,0 l/m 0,0 km/h (0 Bft) N-NO 22 12,6 C 13,3 C 0,0 km/h (0 Bft)
10.09.2014 09:30 13,5 C 95 % 1018,2 hPa 0,0 l/m 0,0 km/h (0 Bft) N-NO 22 12,7 C 13,3 C 0,0 km/h (0 Bft)
10.09.2014 09:40 13,4 C 95 % 1018,2 hPa 0,0 l/m 0,0 km/h (0 Bft) N-NO 22 12,6 C 13,3 C 0,0 km/h (0 Bft)
10.09.2014 09:50 13,4 C 95 % 1018,2 hPa 0,0 l/m 0,0 km/h (0 Bft) N-NO 22 12,6 C 13,3 C 0,0 km/h (0 Bft)
10.09.2014 10:00 13,4 C 95 % 1018,2 hPa 0,0 l/m 0,0 km/h (0 Bft) N-NO 22 12,6 C 13,3 C 0,0 km/h (0 Bft)
10.09.2014 10:10 13,4 C 95 % 1018,2 hPa 0,0 l/m 0,0 km/h (0 Bft) N-NO 22 12,6 C 13,3 C 0,0 km/h (0 Bft)
10.09.2014 10:20 13,3 C 95 % 1018,3 hPa 0,0 l/m 0,0 km/h (0 Bft) N-NO 22 12,5 C 13,3 C 0,0 km/h (0 Bft)
10.09.2014 10:30 13,1 C 95 % 1018,3 hPa 0,0 l/m 0,0 km/h (0 Bft) N-NO 22 12,3 C 13,3 C 0,0 km/h (0 Bft)
10.09.2014 10:40 13,1 C 95 % 1018,6 hPa 0,0 l/m 0,0 km/h (0 Bft) N-NO 22 12,3 C 13,3 C 0,0 km/h (0 Bft)
10.09.2014 10:50 13,4 C 95 % 1018,6 hPa 0,0 l/m 0,0 km/h (0 Bft) N-NO 22 12,6 C 13,3 C 0,0 km/h (0 Bft)
10.09.2014 11:00 13,6 C 95 % 1018,6 hPa 0,0 l/m 0,0 km/h (0 Bft) N-NO 22 12,8 C 13,3 C 0,0 km/h (0 Bft)
10.09.2014 11:10 13,6 C 95 % 1018,6 hPa 0,0 l/m 0,0 km/h (0 Bft) N-NO 22 12,8 C 13,3 C 0,0 km/h (0 Bft)
10.09.2014 11:20 13,8 C 95 % 1018,5 hPa 0,0 l/m 0,0 km/h (0 Bft) N-NO 22 13,0 C 13,3 C 0,0 km/h (0 Bft)
10.09.2014 11:30 14,6 C 95 % 1018,5 hPa 0,0 l/m 0,0 km/h (0 Bft) N-NO 22 13,8 C 13,3 C 0,0 km/h (0 Bft)
10.09.2014 11:40 14,7 C 95 % 1018,2 hPa 0,0 l/m 0,0 km/h (0 Bft) N-NO 22 13,9 C 13,3 C 0,0 km/h (0 Bft)
10.09.2014 11:50 14,5 C 94 % 1018,2 hPa 0,0 l/m 0,0 km/h (0 Bft) N-NO 22 13,5 C 13,3 C 0,0 km/h (0 Bft)
10.09.2014 12:00 14,3 C 94 % 1018,4 hPa 0,0 l/m 0,0 km/h (0 Bft) N-NO 22 13,3 C 13,3 C 0,0 km/h (0 Bft)
10.09.2014 12:10 14,4 C 94 % 1018,4 hPa 0,0 l/m 0,0 km/h (0 Bft) N-NO 22 13,4 C 13,3 C 0,0 km/h (0 Bft)
10.09.2014 12:20 14,5 C 94 % 1018,5 hPa 0,0 l/m 0,0 km/h (0 Bft) N-NO 22 13,5 C 13,3 C 0,0 km/h (0 Bft)
10.09.2014 12:30 14,5 C 93 % 1018,5 hPa 0,0 l/m 0,0 km/h (0 Bft) N-NO 22 13,4 C 13,3 C 0,0 km/h (0 Bft)
10.09.2014 12:40 14,9 C 93 % 1018,6 hPa 0,0 l/m 0,0 km/h (0 Bft) N-NO 22 13,8 C 13,3 C 0,0 km/h (0 Bft)
10.09.2014 12:50 14,5 C 92 % 1018,6 hPa 0,0 l/m 0,0 km/h (0 Bft) N-NO 22 13,2 C 13,3 C 0,0 km/h (0 Bft)
10.09.2014 13:00 14,6 C 91 % 1018,6 hPa 0,0 l/m 0,0 km/h (0 Bft) N-NO 22 13,1 C 13,3 C 0,0 km/h (0 Bft)
10.09.2014 13:10 15,2 C 89 % 1018,6 hPa 0,0 l/m 0,0 km/h (0 Bft) N-NO 22 13,4 C 13,3 C 0,0 km/h (0 Bft)
10.09.2014 13:20 15,4 C 87 % 1018,4 hPa 0,0 l/m 0,0 km/h (0 Bft) N-NO 22 13,2 C 13,3 C 0,0 km/h (0 Bft)
10.09.2014 13:30 15,4 C 87 % 1018,4 hPa 0,0 l/m 0,0 km/h (0 Bft) N-NO 22 13,2 C 13,3 C 0,0 km/h (0 Bft)
10.09.2014 13:40 14,8 C 87 % 1018,5 hPa 0,0 l/m 0,0 km/h (0 Bft) N-NO 22 12,7 C 13,3 C 0,0 km/h (0 Bft)
10.09.2014 13:50 14,8 C 88 % 1018,5 hPa 0,0 l/m 0,0 km/h (0 Bft) N-NO 22 12,8 C 13,3 C 0,0 km/h (0 Bft)
10.09.2014 14:00 14,5 C 89 % 1018,2 hPa 0,0 l/m 0,0 km/h (0 Bft) N-NO 22 12,7 C 13,3 C 0,0 km/h (0 Bft)
10.09.2014 14:10 14,9 C 90 % 1018,2 hPa 0,0 l/m 0,0 km/h (0 Bft) N-NO 22 13,3 C 13,3 C 0,0 km/h (0 Bft)
10.09.2014 14:20 15,2 C 89 % 1018,1 hPa 0,0 l/m 0,0 km/h (0 Bft) N-NO 22 13,4 C 13,3 C 0,0 km/h (0 Bft)
10.09.2014 14:30 15,6 C 88 % 1018,1 hPa 0,0 l/m 0,0 km/h (0 Bft) N-NO 22 13,6 C 13,3 C 0,0 km/h (0 Bft)
10.09.2014 14:40 15,5 C 88 % 1018,0 hPa 0,0 l/m 0,0 km/h (0 Bft) N-NO 22 13,5 C 13,3 C 0,0 km/h (0 Bft)
10.09.2014 14:48 15,4 C 89 % 1018,0 hPa 0,0 l/m 0,0 km/h (0 Bft) N-NO 22 13,6 C 13,3 C 0,0 km/h (0 Bft)
10.09.2014 14:50 15,4 C 89 % 1018,0 hPa 0,0 l/m 0,0 km/h (0 Bft) N-NO 22 13,6 C 13,3 C 0,0 km/h (0 Bft)
10.09.2014 15:00 15,3 C 89 % 1018,0 hPa 0,0 l/m 0,0 km/h (0 Bft) N-NO 22 13,5 C 13,3 C 0,0 km/h (0 Bft)
10.09.2014 15:10 15,7 C 89 % 1018,0 hPa 0,0 l/m 0,0 km/h (0 Bft) N-NO 22 13,9 C 13,3 C 0,0 km/h (0 Bft)
10.09.2014 15:20 16,0 C 89 % 1017,9 hPa 0,0 l/m 0,0 km/h (0 Bft) N-NO 22 14,2 C 13,3 C 0,0 km/h (0 Bft)
10.09.2014 15:30 15,9 C 88 % 1017,9 hPa 0,0 l/m 0,0 km/h (0 Bft) N-NO 22 13,9 C 13,3 C 0,0 km/h (0 Bft)
10.09.2014 15:40 16,5 C 89 % 1017,9 hPa 0,0 l/m 0,0 km/h (0 Bft) N-NO 22 14,7 C 13,3 C 0,0 km/h (0 Bft)
10.09.2014 15:50 16,3 C 88 % 1017,9 hPa 0,0 l/m 0,0 km/h (0 Bft) N-NO 22 14,3 C 13,3 C 0,0 km/h (0 Bft)
10.09.2014 16:00 15,9 C 89 % 1017,9 hPa 0,0 l/m 0,0 km/h (0 Bft) N-NO 22 14,1 C 13,3 C 0,0 km/h (0 Bft)
10.09.2014 16:10 16,4 C 89 % 1017,9 hPa 0,0 l/m 0,0 km/h (0 Bft) N-NO 22 14,6 C 13,3 C 0,0 km/h (0 Bft)
10.09.2014 16:20 16,8 C 89 % 1017,8 hPa 0,0 l/m 0,0 km/h (0 Bft) N-NO 22 15,0 C 13,3 C 0,0 km/h (0 Bft)
10.09.2014 16:30 16,8 C 88 % 1017,8 hPa 0,0 l/m 0,0 km/h (0 Bft) N-NO 22 14,8 C 13,3 C 0,0 km/h (0 Bft)
10.09.2014 16:40 17,3 C 87 % 1017,7 hPa 0,0 l/m 0,0 km/h (0 Bft) N-NO 22 15,1 C 13,3 C 0,0 km/h (0 Bft)
10.09.2014 16:50 17,5 C 86 % 1017,7 hPa 0,0 l/m 0,0 km/h (0 Bft) N-NO 22 15,1 C 13,3 C 0,0 km/h (0 Bft)
10.09.2014 17:00 17,3 C 86 % 1017,8 hPa 0,0 l/m 0,0 km/h (0 Bft) N-NO 22 14,9 C 13,3 C 0,0 km/h (0 Bft)
10.09.2014 17:10 15,9 C 84 % 1017,8 hPa 0,0 l/m 0,0 km/h (0 Bft) N-NO 22 13,2 C 13,3 C 0,0 km/h (0 Bft)
10.09.2014 17:20 14,6 C 85 % 1017,9 hPa 0,0 l/m 0,0 km/h (0 Bft) N-NO 22 12,1 C 13,3 C 0,0 km/h (0 Bft)
10.09.2014 17:30 13,8 C 88 % 1017,9 hPa 0,0 l/m 0,0 km/h (0 Bft) N-NO 22 11,8 C 13,3 C 0,0 km/h (0 Bft)
10.09.2014 17:40 13,6 C 89 % 1017,8 hPa 0,0 l/m 0,0 km/h (0 Bft) N-NO 22 11,8 C 13,3 C 0,0 km/h (0 Bft)
10.09.2014 17:50 13,2 C 90 % 1017,8 hPa 0,0 l/m 0,0 km/h (0 Bft) N-NO 22 11,6 C 13,3 C 0,0 km/h (0 Bft)
10.09.2014 18:00 13,2 C 90 % 1017,9 hPa 0,0 l/m 0,0 km/h (0 Bft) N-NO 22 11,6 C 13,3 C 0,0 km/h (0 Bft)
10.09.2014 18:10 13,0 C 91 % 1017,9 hPa 0,0 l/m 0,0 km/h (0 Bft) N-NO 22 11,6 C 13,3 C 0,0 km/h (0 Bft)
10.09.2014 18:20 13,2 C 91 % 1017,5 hPa 0,0 l/m 0,0 km/h (0 Bft) N-NO 22 11,8 C 13,3 C 0,0 km/h (0 Bft)
10.09.2014 18:30 13,3 C 92 % 1017,5 hPa 0,0 l/m 0,0 km/h (0 Bft) N-NO 22 12,0 C 13,3 C 0,0 km/h (0 Bft)
10.09.2014 18:40 13,4 C 92 % 1017,5 hPa 0,0 l/m 0,0 km/h (0 Bft) N-NO 22 12,1 C 13,3 C 0,0 km/h (0 Bft)
10.09.2014 18:50 13,7 C 93 % 1017,5 hPa 0,0 l/m 0,0 km/h (0 Bft) N-NO 22 12,6 C 13,3 C 0,0 km/h (0 Bft)
10.09.2014 19:00 13,7 C 93 % 1017,5 hPa 0,0 l/m 0,0 km/h (0 Bft) N-NO 22 12,6 C 13,3 C 0,0 km/h (0 Bft)
10.09.2014 19:10 13,4 C 93 % 1017,5 hPa 0,0 l/m 0,0 km/h (0 Bft) N-NO 22 12,3 C 13,3 C 0,0 km/h (0 Bft)
10.09.2014 19:20 13,2 C 93 % 1017,4 hPa 0,0 l/m 0,0 km/h (0 Bft) N-NO 22 12,1 C 13,3 C 0,0 km/h (0 Bft)
10.09.2014 19:30 13,2 C 93 % 1017,4 hPa 0,0 l/m 0,0 km/h (0 Bft) N-NO 22 12,1 C 13,3 C 0,0 km/h (0 Bft)
10.09.2014 19:40 12,9 C 94 % 1017,2 hPa 0,0 l/m 0,0 km/h (0 Bft) N-NO 22 12,0 C 13,3 C 0,0 km/h (0 Bft)
10.09.2014 19:50 12,8 C 94 % 1017,2 hPa 0,0 l/m 0,0 km/h (0 Bft) N-NO 22 11,9 C 13,3 C 0,0 km/h (0 Bft)
10.09.2014 20:00 12,9 C 94 % 1017,4 hPa 0,0 l/m 0,0 km/h (0 Bft) N-NO 22 12,0 C 13,3 C 0,0 km/h (0 Bft)
10.09.2014 20:10 13,0 C 93 % 1017,4 hPa 0,0 l/m 0,0 km/h (0 Bft) N-NO 22 11,9 C 13,3 C 0,0 km/h (0 Bft)
10.09.2014 20:20 12,9 C 94 % 1017,3 hPa 0,0 l/m 0,0 km/h (0 Bft) N-NO 22 12,0 C 13,3 C 0,0 km/h (0 Bft)
10.09.2014 20:30 12,8 C 94 % 1017,3 hPa 0,0 l/m 0,0 km/h (0 Bft) N-NO 22 11,9 C 13,3 C 0,0 km/h (0 Bft)
10.09.2014 20:40 12,9 C 94 % 1017,3 hPa 0,0 l/m 0,0 km/h (0 Bft) N-NO 22 12,0 C 13,3 C 0,0 km/h (0 Bft)
10.09.2014 20:50 12,9 C 94 % 1017,3 hPa 0,0 l/m 0,0 km/h (0 Bft) N-NO 22 12,0 C 13,3 C 0,0 km/h (0 Bft)
10.09.2014 21:00 12,8 C 94 % 1017,1 hPa 0,0 l/m 0,0 km/h (0 Bft) N-NO 22 11,9 C 13,3 C 0,0 km/h (0 Bft)
10.09.2014 21:10 12,7 C 94 % 1017,1 hPa 0,0 l/m 0,0 km/h (0 Bft) N-NO 22 11,8 C 13,3 C 0,0 km/h (0 Bft)
10.09.2014 21:20 12,6 C 94 % 1017,0 hPa 0,0 l/m 0,0 km/h (0 Bft) N-NO 22 11,7 C 13,3 C 0,0 km/h (0 Bft)
10.09.2014 21:30 12,6 C 94 % 1017,0 hPa 0,0 l/m 0,0 km/h (0 Bft) N-NO 22 11,7 C 13,3 C 0,0 km/h (0 Bft)
10.09.2014 21:40 12,5 C 94 % 1017,3 hPa 0,0 l/m 0,0 km/h (0 Bft) N-NO 22 11,6 C 13,3 C 0,0 km/h (0 Bft)
10.09.2014 21:50 12,2 C 94 % 1017,3 hPa 0,0 l/m 0,0 km/h (0 Bft) N-NO 22 11,3 C 13,3 C 0,0 km/h (0 Bft)
10.09.2014 22:00 12,2 C 94 % 1017,3 hPa 0,0 l/m 0,0 km/h (0 Bft) N-NO 22 11,3 C 13,3 C 0,0 km/h (0 Bft)
10.09.2014 22:10 12,4 C 94 % 1017,3 hPa 0,0 l/m 0,0 km/h (0 Bft) N-NO 22 11,5 C 13,3 C 0,0 km/h (0 Bft)
10.09.2014 22:20 12,3 C 95 % 1017,4 hPa 0,0 l/m 0,0 km/h (0 Bft) N-NO 22 11,5 C 13,3 C 0,0 km/h (0 Bft)
10.09.2014 22:30 12,2 C 95 % 1017,4 hPa 0,0 l/m 0,0 km/h (0 Bft) N-NO 22 11,4 C 13,3 C 0,0 km/h (0 Bft)
10.09.2014 22:40 12,2 C 95 % 1017,6 hPa 0,0 l/m 0,0 km/h (0 Bft) N-NO 22 11,4 C 13,3 C 0,0 km/h (0 Bft)
10.09.2014 22:50 12,3 C 95 % 1017,6 hPa 0,0 l/m 0,0 km/h (0 Bft) N-NO 22 11,5 C 13,3 C 0,0 km/h (0 Bft)
10.09.2014 23:00 12,3 C 95 % 1017,6 hPa 0,0 l/m 0,0 km/h (0 Bft) N-NO 22 11,5 C 13,3 C 0,0 km/h (0 Bft)
10.09.2014 23:10 12,4 C 95 % 1017,6 hPa 0,0 l/m 0,0 km/h (0 Bft) N-NO 22 11,6 C 13,3 C 0,0 km/h (0 Bft)
10.09.2014 23:20 12,2 C 95 % 1017,4 hPa 0,0 l/m 0,0 km/h (0 Bft) N-NO 22 11,4 C 13,3 C 0,0 km/h (0 Bft)
10.09.2014 23:30 11,9 C 95 % 1017,4 hPa 0,0 l/m 0,0 km/h (0 Bft) N-NO 22 11,1 C 13,3 C 0,0 km/h (0 Bft)
10.09.2014 23:40 12,0 C 95 % 1017,3 hPa 0,0 l/m 0,0 km/h (0 Bft) N-NO 22 11,2 C 13,3 C 0,0 km/h (0 Bft)
10.09.2014 23:50 12,1 C 95 % 1017,3 hPa 0,0 l/m 0,0 km/h (0 Bft) N-NO 22 11,3 C 13,3 C 0,0 km/h (0 Bft)
_ Min-Zeit 23:30 17:10 21:30 - 23:50 - - 23:30 01:20 23:50
Minimum _ 11,9 C 84 % 1017,0 hPa - 0,0 km/h (0 Bft) - - 11,1 C 12,4 C 0,0 km/h (0 Bft)
_ Max-Zeit 16:50 23:50 00:10 23:50 08:30 - - 16:50 08:20 07:20
Maximum _ 17,5 C 95 % 1020,1 hPa 0,0 l/m 1,9 km/h
N (1 Bft)
- - 15,1 C 13,4 C 5,0 km/h
O (1 Bft)
Durchschnitt _ 13,7 C 93 % 1018,1 hPa #0,0 l/m 0,2 km/h (0 Bft) O - 12,6 C 13,2 C 0,3 km/h (0 Bft)